Time,TemperatureF,DewpointF,PressureIn,WindDirection,WindDirectionDegrees,WindSpeedMPH,WindSpeedGustMPH,Humidity,HourlyPrecipIn,Conditions,Clouds,dailyrainin,SoftwareType,DateUTC
2013-01-16 00:02:00,35.0,29.0,30.62,NW,319,1.0,3.0,79,0.00,,,-99.99,,2013-01-16 08:02:00,
2013-01-16 00:32:00,34.0,30.0,30.61,NW,319,0.0,1.0,84,0.00,,,0.00,,2013-01-16 08:32:00,
2013-01-16 00:42:00,34.0,30.0,30.61,NW,319,0.0,1.0,84,0.00,,,0.00,,2013-01-16 08:42:00,
2013-01-16 00:52:00,34.0,30.0,30.61,NW,319,0.0,1.0,84,0.00,,,0.00,,2013-01-16 08:52:00,
2013-01-16 01:02:00,34.0,30.0,30.61,NW,319,0.0,1.0,84,0.00,,,0.00,,2013-01-16 09:02:00,
2013-01-16 01:33:00,32.0,28.0,30.62,NW,319,0.0,1.0,85,0.00,,,0.00,,2013-01-16 09:33:00,
2013-01-16 01:43:00,32.0,28.0,30.62,NW,319,0.0,1.0,85,0.00,,,0.00,,2013-01-16 09:43:00,
2013-01-16 01:52:00,32.0,28.0,30.62,NW,319,0.0,1.0,85,0.00,,,0.00,,2013-01-16 09:52:00,
2013-01-16 02:02:00,32.0,28.0,30.62,NW,319,0.0,1.0,85,0.00,,,0.00,,2013-01-16 10:02:00,
2013-01-16 02:32:00,31.0,28.0,30.61,NW,320,0.0,0.0,87,0.00,,,0.00,,2013-01-16 10:32:00,
2013-01-16 02:43:00,31.0,28.0,30.61,NW,320,0.0,0.0,87,0.00,,,0.00,,2013-01-16 10:43:00,
2013-01-16 02:52:00,31.0,28.0,30.61,NW,320,0.0,0.0,87,0.00,,,0.00,,2013-01-16 10:52:00,
2013-01-16 03:02:00,31.0,28.0,30.61,NW,320,0.0,0.0,87,0.00,,,0.00,,2013-01-16 11:02:00,
2013-01-16 03:33:00,31.0,28.0,30.61,NW,319,0.0,1.0,88,0.00,,,0.00,,2013-01-16 11:33:00,
2013-01-16 03:43:00,31.0,28.0,30.61,NW,319,0.0,1.0,88,0.00,,,0.00,,2013-01-16 11:43:00,
2013-01-16 03:53:00,31.0,28.0,30.61,NW,319,0.0,1.0,88,0.00,,,0.00,,2013-01-16 11:53:00,
2013-01-16 04:02:00,31.0,28.0,30.61,NW,319,0.0,1.0,88,0.00,,,0.00,,2013-01-16 12:02:00,
2013-01-16 04:22:00,31.0,28.0,30.60,NW,319,0.0,1.0,87,0.00,,,0.00,,2013-01-16 12:22:00,
2013-01-16 04:33:00,31.0,28.0,30.60,NW,319,0.0,1.0,87,0.00,,,0.00,,2013-01-16 12:33:00,
2013-01-16 04:43:00,31.0,28.0,30.60,NW,319,0.0,1.0,87,0.00,,,0.00,,2013-01-16 12:43:00,
2013-01-16 04:53:00,31.0,28.0,30.60,NW,319,0.0,1.0,87,0.00,,,0.00,,2013-01-16 12:53:00,
2013-01-16 05:02:00,31.0,28.0,30.60,NW,319,0.0,1.0,87,0.00,,,0.00,,2013-01-16 13:02:00,
2013-01-16 05:33:00,30.0,27.0,30.59,NW,320,0.0,0.0,88,0.00,,,0.00,,2013-01-16 13:33:00,
2013-01-16 05:43:00,30.0,27.0,30.59,NW,320,0.0,0.0,88,0.00,,,0.00,,2013-01-16 13:43:00,
2013-01-16 05:53:00,30.0,27.0,30.59,NW,320,0.0,0.0,88,0.00,,,0.00,,2013-01-16 13:53:00,
2013-01-16 06:02:00,30.0,27.0,30.59,NW,320,0.0,0.0,88,0.00,,,0.00,,2013-01-16 14:02:00,
2013-01-16 06:33:00,29.0,26.0,30.59,NW,320,1.0,1.0,88,0.00,,,0.00,,2013-01-16 14:33:00,
2013-01-16 06:43:00,29.0,26.0,30.59,NW,320,1.0,1.0,88,0.00,,,0.00,,2013-01-16 14:43:00,
2013-01-16 06:53:00,29.0,26.0,30.59,NW,320,1.0,1.0,88,0.00,,,0.00,,2013-01-16 14:53:00,
2013-01-16 07:02:00,29.0,26.0,30.59,NW,320,1.0,1.0,88,0.00,,,0.00,,2013-01-16 15:02:00,
2013-01-16 07:33:00,29.0,26.0,30.58,NW,320,0.0,2.0,89,0.00,,,0.00,,2013-01-16 15:33:00,
2013-01-16 07:43:00,29.0,26.0,30.58,NW,320,0.0,2.0,89,0.00,,,0.00,,2013-01-16 15:43:00,
2013-01-16 07:53:00,29.0,26.0,30.58,NW,320,0.0,2.0,89,0.00,,,0.00,,2013-01-16 15:53:00,
2013-01-16 08:03:00,29.0,26.0,30.58,NW,320,0.0,2.0,89,0.00,,,0.00,,2013-01-16 16:03:00,
2013-01-16 08:33:00,29.0,26.0,30.59,NW,320,0.0,0.0,89,0.00,,,0.00,,2013-01-16 16:33:00,
2013-01-16 08:43:00,29.0,26.0,30.59,NW,320,0.0,0.0,89,0.00,,,0.00,,2013-01-16 16:43:00,
2013-01-16 08:53:00,29.0,26.0,30.59,NW,320,0.0,0.0,89,0.00,,,0.00,,2013-01-16 16:53:00,
2013-01-16 09:02:00,29.0,26.0,30.59,NW,320,0.0,0.0,89,0.00,,,0.00,,2013-01-16 17:02:00,
2013-01-16 09:33:00,34.0,30.0,30.59,NW,320,0.0,0.0,86,0.00,,,0.00,,2013-01-16 17:33:00,
2013-01-16 09:44:00,34.0,30.0,30.59,NW,320,0.0,0.0,86,0.00,,,0.00,,2013-01-16 17:44:00,
2013-01-16 09:53:00,34.0,30.0,30.59,NW,320,0.0,0.0,86,0.00,,,0.00,,2013-01-16 17:53:00,
2013-01-16 10:02:00,34.0,30.0,30.59,NW,320,0.0,0.0,86,0.00,,,0.00,,2013-01-16 18:02:00,
2013-01-16 10:33:00,38.0,33.0,30.58,NW,317,0.0,1.0,83,0.00,,,0.00,,2013-01-16 18:33:00,
2013-01-16 10:43:00,38.0,33.0,30.58,NW,317,0.0,1.0,83,0.00,,,0.00,,2013-01-16 18:43:00,
2013-01-16 10:53:00,38.0,33.0,30.58,NW,317,0.0,1.0,83,0.00,,,0.00,,2013-01-16 18:53:00,
2013-01-16 11:02:00,38.0,33.0,30.58,NW,317,0.0,1.0,83,0.00,,,0.00,,2013-01-16 19:02:00,
2013-01-16 11:33:00,46.0,38.0,30.57,NW,317,0.0,1.0,73,0.00,,,0.00,,2013-01-16 19:33:00,
2013-01-16 11:43:00,46.0,38.0,30.57,NW,317,0.0,1.0,73,0.00,,,0.00,,2013-01-16 19:43:00,
2013-01-16 11:53:00,46.0,38.0,30.57,NW,317,0.0,1.0,73,0.00,,,0.00,,2013-01-16 19:53:00,
2013-01-16 12:02:00,46.0,38.0,30.57,NW,317,0.0,1.0,73,0.00,,,0.00,,2013-01-16 20:02:00,
2013-01-16 12:33:00,54.0,43.0,30.53,North,9,0.0,2.0,67,0.00,,,0.00,,2013-01-16 20:33:00,
2013-01-16 13:33:00,56.0,36.0,30.49,NW,326,0.0,6.0,46,0.00,,,0.00,,2013-01-16 21:33:00,
2013-01-16 14:02:00,56.0,36.0,30.49,NW,326,0.0,6.0,46,0.00,,,0.00,,2013-01-16 22:02:00,
2013-01-16 14:33:00,57.0,35.0,30.48,NW,317,4.0,8.0,43,0.00,,,0.00,,2013-01-16 22:33:00,
2013-01-16 14:43:00,57.0,35.0,30.48,NW,317,4.0,8.0,43,0.00,,,0.00,,2013-01-16 22:43:00,
2013-01-16 14:52:00,57.0,35.0,30.48,NW,317,4.0,8.0,43,0.00,,,0.00,,2013-01-16 22:52:00,
2013-01-16 15:02:00,57.0,35.0,30.48,NW,317,4.0,8.0,43,0.00,,,0.00,,2013-01-16 23:02:00,
2013-01-16 15:33:00,57.0,35.0,30.48,NW,318,3.0,6.0,43,0.00,,,0.00,,2013-01-16 23:33:00,
2013-01-16 15:43:00,57.0,35.0,30.48,NW,318,3.0,6.0,43,0.00,,,0.00,,2013-01-16 23:43:00,
2013-01-16 15:53:00,57.0,35.0,30.48,NW,318,3.0,6.0,43,0.00,,,0.00,,2013-01-16 23:53:00,
2013-01-16 16:02:00,57.0,35.0,30.48,NW,318,3.0,6.0,43,0.00,,,0.00,,2013-01-17 00:02:00,
2013-01-16 16:33:00,56.0,33.0,30.48,NW,316,5.0,5.0,42,0.00,,,0.00,,2013-01-17 00:33:00,
2013-01-16 16:42:00,56.0,33.0,30.48,NW,316,5.0,5.0,42,0.00,,,0.00,,2013-01-17 00:42:00,
2013-01-16 16:52:00,56.0,33.0,30.48,NW,316,5.0,5.0,42,0.00,,,0.00,,2013-01-17 00:52:00,
2013-01-16 17:02:00,56.0,33.0,30.48,NW,316,5.0,5.0,42,0.00,,,0.00,,2013-01-17 01:02:00,
2013-01-16 17:33:00,53.0,34.0,30.47,NE,40,1.0,5.0,49,0.00,,,0.00,,2013-01-17 01:33:00,
2013-01-16 17:43:00,53.0,34.0,30.47,NE,40,1.0,5.0,49,0.00,,,0.00,,2013-01-17 01:43:00,
2013-01-16 17:52:00,53.0,34.0,30.47,NE,40,1.0,5.0,49,0.00,,,0.00,,2013-01-17 01:52:00,
2013-01-16 18:02:00,53.0,34.0,30.47,NE,40,1.0,5.0,49,0.00,,,0.00,,2013-01-17 02:02:00,
2013-01-16 18:32:00,50.0,34.0,30.47,NE,36,3.0,3.0,54,0.00,,,0.00,,2013-01-17 02:32:00,
2013-01-16 18:43:00,50.0,34.0,30.47,NE,36,3.0,3.0,54,0.00,,,0.00,,2013-01-17 02:43:00,
2013-01-16 18:52:00,50.0,34.0,30.47,NE,36,3.0,3.0,54,0.00,,,0.00,,2013-01-17 02:52:00,
2013-01-16 19:02:00,50.0,34.0,30.47,NE,36,3.0,3.0,54,0.00,,,0.00,,2013-01-17 03:02:00,
2013-01-16 19:33:00,48.0,33.0,30.48,NNE,21,2.0,5.0,55,0.00,,,0.00,,2013-01-17 03:33:00,
2013-01-16 19:43:00,48.0,33.0,30.48,NNE,21,2.0,5.0,55,0.00,,,0.00,,2013-01-17 03:43:00,
2013-01-16 19:52:00,48.0,33.0,30.48,NNE,21,2.0,5.0,55,0.00,,,0.00,,2013-01-17 03:52:00,
2013-01-16 20:02:00,48.0,33.0,30.48,NNE,21,2.0,5.0,55,0.00,,,0.00,,2013-01-17 04:02:00,
2013-01-16 20:33:00,44.0,34.0,30.47,NNE,20,0.0,1.0,69,0.00,,,0.00,,2013-01-17 04:33:00,
2013-01-16 20:43:00,44.0,34.0,30.47,NNE,20,0.0,1.0,69,0.00,,,0.00,,2013-01-17 04:43:00,
2013-01-16 20:52:00,44.0,34.0,30.47,NNE,20,0.0,1.0,69,0.00,,,0.00,,2013-01-17 04:52:00,
2013-01-16 21:03:00,44.0,34.0,30.47,NNE,20,0.0,1.0,69,0.00,,,0.00,,2013-01-17 05:03:00,
2013-01-16 21:22:00,40.0,33.0,30.46,NNE,20,0.0,0.0,77,0.00,,,0.00,,2013-01-17 05:22:00,
2013-01-16 21:33:00,40.0,33.0,30.46,NNE,20,0.0,0.0,77,0.00,,,0.00,,2013-01-17 05:33:00,
2013-01-16 21:43:00,40.0,33.0,30.46,NNE,20,0.0,0.0,77,0.00,,,0.00,,2013-01-17 05:43:00,
2013-01-16 21:52:00,40.0,33.0,30.46,NNE,20,0.0,0.0,77,0.00,,,0.00,,2013-01-17 05:52:00,
2013-01-16 22:02:00,40.0,33.0,30.46,NNE,20,0.0,0.0,77,0.00,,,0.00,,2013-01-17 06:02:00,
2013-01-16 22:33:00,37.0,32.0,30.46,NNE,20,1.0,1.0,81,0.00,,,0.00,,2013-01-17 06:33:00,
2013-01-16 22:42:00,37.0,32.0,30.46,NNE,20,1.0,1.0,81,0.00,,,0.00,,2013-01-17 06:42:00,
2013-01-16 22:52:00,37.0,32.0,30.46,NNE,20,1.0,1.0,81,0.00,,,0.00,,2013-01-17 06:52:00,
2013-01-16 23:02:00,37.0,32.0,30.46,NNE,20,1.0,1.0,81,0.00,,,0.00,,2013-01-17 07:02:00,
2013-01-16 23:33:00,36.0,31.0,30.44,NNE,20,0.0,1.0,83,0.00,,,0.00,,2013-01-17 07:33:00,
2013-01-16 23:42:00,36.0,31.0,30.44,NNE,20,0.0,1.0,83,0.00,,,0.00,,2013-01-17 07:42:00,
2013-01-16 23:52:00,36.0,31.0,30.44,NNE,20,0.0,1.0,83,0.00,,,0.00,,2013-01-17 07:52:00,